Tracking 23726 objects as of 24-Sep-2021
HD Live streaming from Space Station
objects crossing your sky now

STARLINK-1669

Track STARLINK-1669 now!
10-day predictions
STARLINK-1669 is classified as:


NORAD ID: 47624
Int'l Code: 2021-012E
Perigee: 553.0 km
Apogee: 555.7 km
Inclination: 53.1 °
Period: 95.6 minutes
Semi major axis: 6925 km
RCS: Unknown
Launch date: February 16, 2021
Source: United States (US)
Launch site: AIR FORCE EASTERN TEST RANGE (AFETR)
aabbcc
Your satellite tracking list
Your tracking list is empty




NASA's NSSDC Master Catalog

Two Line Element Set (TLE):
1 47624U 21012E   21267.25001157  .00005612  00000-0  39529-3 0  9993
2 47624  53.0530 157.4721 0001933  77.7123  33.0381 15.06408005 34465
Source of the keplerian elements: AFSPC